Date,TemperatureHighF,TemperatureAvgF,TemperatureLowF,DewpointHighF,DewpointAvgF,DewpointLowF,HumidityHigh,HumidityAvg,HumidityLow,PressureMaxIn,PressureMinIn,WindSpeedMaxMPH,WindSpeedAvgMPH,GustSpeedMaxMPH,PrecipitationSumIn
2013-2-1,31,25,19,14,9,4,62,50,37,30.19,29.66,8,4,21,0.00
2013-2-2,30,21,14,14,7,3,70,55,41,30.32,30.10,5,2,11,0.00
2013-2-3,30,23,14,21,17,10,87,78,66,30.11,29.79,3,0,4,0.00
2013-2-4,27,20,15,15,11,8,84,67,47,30.05,29.78,6,3,14,0.00
2013-2-5,31,24,17,20,15,9,85,69,52,30.09,29.98,3,1,4,0.00
2013-2-6,36,27,20,25,17,5,90,68,44,30.42,29.97,5,2,11,0.00
2013-2-7,30,21,10,9,6,5,82,54,34,30.61,30.35,2,0,3,0.00
2013-2-8,29,23,17,24,16,8,89,77,52,30.52,29.72,7,3,16,0.00
2013-2-9,25,18,12,17,11,2,89,75,59,30.33,29.69,8,6,19,0.00
2013-2-10,34,18,8,13,5,-1,79,57,33,30.50,30.27,6,6,6,0.00
2013-2-11,42,32,9,40,27,-11,94,85,10,30.39,29.70,6,6,8,0.33
2013-2-12,40,40,40,-11,-11,-11,10,10,10,30.03,29.71,7,4,12,0.00
2013-2-13,40,40,40,-11,-11,-11,10,10,10,29.93,29.78,3,1,7,0.00
2013-2-14,40,40,40,-11,-11,-11,10,10,10,30.12,29.78,3,1,8,0.00
2013-2-15,40,40,40,-11,-11,-11,10,10,10,30.09,29.96,5,1,13,0.00
2013-2-16,42,38,28,23,-2,-11,73,25,10,30.24,29.81,4,1,9,0.03
2013-2-17,28,21,14,18,7,0,80,56,43,29.82,29.51,8,5,19,0.00
2013-2-18,27,18,10,4,1,-1,60,48,32,30.30,29.77,7,4,19,0.00
2013-2-19,46,33,18,38,24,4,93,69,50,30.22,29.67,4,1,7,0.13
2013-2-20,38,29,23,36,20,11,93,68,44,29.91,29.64,6,4,13,0.07
2013-2-21,30,25,21,16,13,10,74,62,49,30.30,29.83,7,4,18,0.00
2013-2-22,39,29,18,23,20,14,85,68,51,30.48,30.28,5,2,8,0.00
2013-2-23,36,33,29,31,28,22,91,81,75,30.38,29.98,3,1,7,0.00
2013-2-24,37,34,32,35,32,31,94,93,91,30.05,29.80,2,0,7,0.01
2013-2-25,40,33,27,37,31,25,94,93,89,30.37,29.96,2,0,4,0.00
2013-2-26,42,35,32,38,32,28,95,88,74,30.40,30.20,3,1,6,0.39
2013-2-27,40,36,33,38,34,30,94,93,86,30.20,29.67,6,3,10,1.99
2013-2-28,45,36,30,42,34,29,95,92,86,29.71,29.61,2,0,3,0.00